Location: Blackie
(50.6050°N, 113.6230°W)
Time: 06:57:56
(UTC+00:00)

N. Korean satellite - Pass Details

Date: 02 December 2021
Orbit: 446 x 491 km, 97.3° (Epoch: 18 January)

Event Time Altitude Azimuth Distance (km) Brightness Sun altitude
Rises 13:30:16 0° 6° (N) 2,480 10.1 -15.9°
Reaches altitude 10° 13:32:24 10° 359° (N) 1,596 9.0 -15.6°
Maximum altitude 13:35:36 39° 290° (WNW) 698 6.8 -15.1°
Drops below altitude 10° 13:38:45 10° 220° (SW) 1,573 8.9 -14.6°
Sets 13:40:57 0° 212° (SSW) 2,488 10.0 -14.3°
